This is the latest recevied weather packets stored in our database for station/object 9W2TBJ-4. If no packets are shown the sender has not sent any weather packets the latest 10 day(s).
| Time | Temp. | Humidity | Pressure | Rain* | Wind** | Luminosity | Snow |
|---|---|---|---|---|---|---|---|
| 1777376104 | 32.22° C | 61% | 1008.8 hPa | - | - | - | - |
| 1777374904 | 32.22° C | 61% | 1008.6 hPa | - | - | - | - |
| 1777373704 | 32.78° C | 59% | 1008.4 hPa | - | - | - | - |
| 1777372504 | 33.33° C | 58% | 1008.1 hPa | - | - | - | - |
| 1777371304 | 32.78° C | 59% | 1008.2 hPa | - | - | - | - |
| 1777370104 | 32.78° C | 60% | 1007.9 hPa | - | - | - | - |
| 1777368906 | 32.78° C | 59% | 1007.7 hPa | - | - | - | - |
| 1777367704 | 33.33° C | 58% | 1007.3 hPa | - | - | - | - |
| 1777366504 | 33.33° C | 58% | 1007.2 hPa | - | - | - | - |
| 1777365304 | 33.33° C | 59% | 1007.4 hPa | - | - | - | - |
| 1777364103 | 32.78° C | 60% | 1007.3 hPa | - | - | - | - |
| 1777362903 | 33.33° C | 59% | 1007.4 hPa | - | - | - | - |
| 1777361703 | 32.78° C | 61% | 1007.5 hPa | - | - | - | - |
| 1777360503 | 32.78° C | 60% | 1007.7 hPa | - | - | - | - |
| 1777359303 | 33.33° C | 57% | 1008 hPa | - | - | - | - |
| 1777358103 | 33.89° C | 56% | 1008.1 hPa | - | - | - | - |
| 1777356903 | 34.44° C | 52% | 1008.4 hPa | - | - | - | - |
| 1777355703 | 33.89° C | 53% | 1009.1 hPa | - | - | - | - |
| 1777354503 | 33.89° C | 52% | 1009.3 hPa | - | - | - | - |
| 1777353303 | 33.33° C | 53% | 1009.5 hPa | - | - | - | - |
| 1777352103 | 33.33° C | 54% | 1009.8 hPa | - | - | - | - |
| 1777350903 | 33.33° C | 56% | 1010.2 hPa | - | - | - | - |
| 1777349703 | 33.33° C | 56% | 1010.5 hPa | - | - | - | - |
| 1777348503 | 32.78° C | 58% | 1010.8 hPa | - | - | - | - |
| 1777347303 | 32.22° C | 61% | 1010.9 hPa | - | - | - | - |
* Rain since midnight (hover to see other rain measurements)
** Current wind speed in m/s (hover to see current wind gust speed)